Time,TemperatureF,DewpointF,PressureIn,WindDirection,WindDirectionDegrees,WindSpeedMPH,WindSpeedGustMPH,Humidity,HourlyPrecipIn,Conditions,Clouds,dailyrainin,SoftwareType,DateUTC
2013-03-13 00:16:00,29.5,28.0,29.96,NNW,337,2.0,7.0,94,0.00,,,0.00,weatherlink.com 1.10,2013-03-13 04:16:00,
2013-03-13 00:31:00,29.2,28.0,29.96,North,352,1.0,3.0,95,0.00,,,0.00,weatherlink.com 1.10,2013-03-13 04:31:00,
2013-03-13 00:46:00,28.8,28.0,29.96,SSW,203,0.0,3.0,95,0.00,,,0.00,weatherlink.com 1.10,2013-03-13 04:46:00,
2013-03-13 01:16:00,27.7,26.0,29.98,NW,311,0.0,5.0,92,0.00,,,0.00,weatherlink.com 1.10,2013-03-13 05:16:00,
2013-03-13 01:31:00,27.4,26.0,29.98,NW,308,2.0,3.0,94,0.00,,,0.00,weatherlink.com 1.10,2013-03-13 05:31:00,
2013-03-13 01:46:00,27.3,26.0,29.98,NW,304,0.0,5.0,93,0.00,,,0.00,weatherlink.com 1.10,2013-03-13 05:46:00,
2013-03-13 02:01:00,27.2,26.0,29.98,NW,309,1.0,3.0,93,0.00,,,0.00,weatherlink.com 1.10,2013-03-13 06:01:00,
2013-03-13 02:31:00,26.8,25.0,29.98,WNW,286,0.0,3.0,93,0.00,,,0.00,weatherlink.com 1.10,2013-03-13 06:31:00,
2013-03-13 02:46:00,26.3,25.0,29.98,WNW,301,0.0,1.0,93,0.00,,,0.00,weatherlink.com 1.10,2013-03-13 06:46:00,
2013-03-13 03:01:00,26.0,25.0,29.98,West,278,0.0,1.0,94,0.00,,,0.00,weatherlink.com 1.10,2013-03-13 07:01:00,
2013-03-13 03:16:00,26.1,25.0,29.98,North,352,0.0,2.0,94,0.00,,,0.00,weatherlink.com 1.10,2013-03-13 07:16:00,
2013-03-13 03:31:00,26.2,25.0,29.98,West,268,0.0,3.0,95,0.00,,,0.00,weatherlink.com 1.10,2013-03-13 07:31:00,
2013-03-13 03:46:00,26.3,25.0,29.98,WNW,290,0.0,2.0,95,0.00,,,0.00,weatherlink.com 1.10,2013-03-13 07:46:00,
2013-03-13 04:01:00,26.5,25.0,29.98,SW,228,0.0,3.0,95,0.00,,,0.00,weatherlink.com 1.10,2013-03-13 08:01:00,
2013-03-13 04:31:00,26.5,25.0,29.98,NNW,333,1.0,2.0,95,0.00,,,0.00,weatherlink.com 1.10,2013-03-13 08:31:00,
2013-03-13 04:46:00,25.8,24.0,29.99,NNW,345,0.0,3.0,94,0.00,,,0.00,weatherlink.com 1.10,2013-03-13 08:46:00,
2013-03-13 05:01:00,25.3,23.0,29.99,NNW,344,0.0,3.0,92,0.00,,,0.00,weatherlink.com 1.10,2013-03-13 09:01:00,
2013-03-13 05:16:00,25.0,23.0,30.00,NNW,347,1.0,1.0,92,0.00,,,0.00,weatherlink.com 1.10,2013-03-13 09:16:00,
2013-03-13 05:31:00,24.6,22.0,30.01,NNW,331,0.0,2.0,91,0.00,,,0.00,weatherlink.com 1.10,2013-03-13 09:31:00,
2013-03-13 05:47:00,24.5,23.0,30.02,North,360,0.0,1.0,92,0.00,,,0.00,weatherlink.com 1.10,2013-03-13 09:47:00,
2013-03-13 06:02:00,24.3,22.0,30.02,North,349,0.0,2.0,92,0.00,,,0.00,weatherlink.com 1.10,2013-03-13 10:02:00,
2013-03-13 06:17:00,24.1,22.0,30.03,NNW,339,0.0,2.0,91,0.00,,,0.00,weatherlink.com 1.10,2013-03-13 10:17:00,
2013-03-13 06:32:00,23.9,22.0,30.04,NNW,329,1.0,2.0,91,0.00,,,0.00,weatherlink.com 1.10,2013-03-13 10:32:00,
2013-03-13 06:47:00,23.8,21.0,30.04,NNW,330,0.0,2.0,90,0.00,,,0.00,weatherlink.com 1.10,2013-03-13 10:47:00,
2013-03-13 07:02:00,23.8,21.0,30.05,North,10,0.0,2.0,89,0.00,,,0.00,weatherlink.com 1.10,2013-03-13 11:02:00,
2013-03-13 07:17:00,23.8,21.0,30.05,NNW,339,0.0,2.0,89,0.00,,,0.00,weatherlink.com 1.10,2013-03-13 11:17:00,
2013-03-13 07:32:00,23.6,21.0,30.06,NNW,334,0.0,2.0,91,0.00,,,0.00,weatherlink.com 1.10,2013-03-13 11:32:00,
2013-03-13 07:47:00,23.4,22.0,30.06,NW,324,0.0,2.0,92,0.00,,,0.00,weatherlink.com 1.10,2013-03-13 11:47:00,
2013-03-13 08:02:00,23.3,21.0,30.07,NW,322,0.0,2.0,92,0.00,,,0.00,weatherlink.com 1.10,2013-03-13 12:02:00,
2013-03-13 08:17:00,23.4,22.0,30.08,NW,304,0.0,1.0,92,0.00,,,0.00,weatherlink.com 1.10,2013-03-13 12:17:00,
2013-03-13 08:32:00,23.6,22.0,30.08,NNW,339,0.0,2.0,92,0.00,,,0.00,weatherlink.com 1.10,2013-03-13 12:32:00,
2013-03-13 08:47:00,23.8,22.0,30.09,NW,322,0.0,1.0,92,0.00,,,0.00,weatherlink.com 1.10,2013-03-13 12:47:00,
2013-03-13 09:02:00,23.6,22.0,30.10,North,4,1.0,2.0,92,0.00,,,0.00,weatherlink.com 1.10,2013-03-13 13:02:00,
2013-03-13 09:17:00,23.6,22.0,30.10,WNW,298,0.0,2.0,93,0.00,,,0.00,weatherlink.com 1.10,2013-03-13 13:17:00,
2013-03-13 09:32:00,24.3,23.0,30.10,NW,317,0.0,0.0,93,0.00,,,0.00,weatherlink.com 1.10,2013-03-13 13:32:00,
2013-03-13 09:47:00,25.0,23.0,30.11,NNW,335,0.0,0.0,91,0.00,,,0.00,weatherlink.com 1.10,2013-03-13 13:47:00,
2013-03-13 10:02:00,25.5,23.0,30.12,NW,309,0.0,0.0,89,0.00,,,0.00,weatherlink.com 1.10,2013-03-13 14:02:00,
2013-03-13 10:17:00,25.7,23.0,30.12,NNW,335,0.0,1.0,88,0.00,,,0.00,weatherlink.com 1.10,2013-03-13 14:17:00,
2013-03-13 10:32:00,25.8,23.0,30.13,NNW,338,1.0,3.0,89,0.00,,,0.00,weatherlink.com 1.10,2013-03-13 14:32:00,
2013-03-13 10:47:00,26.9,24.0,30.14,North,351,1.0,3.0,88,0.00,,,0.00,weatherlink.com 1.10,2013-03-13 14:47:00,
2013-03-13 11:02:00,26.7,23.0,30.14,NW,326,2.0,3.0,86,0.00,,,0.00,weatherlink.com 1.10,2013-03-13 15:02:00,
2013-03-13 11:17:00,26.5,23.0,30.15,NNW,330,1.0,4.0,85,0.00,,,0.00,weatherlink.com 1.10,2013-03-13 15:17:00,
2013-03-13 11:32:00,26.8,23.0,30.15,NW,308,1.0,5.0,84,0.00,,,0.00,weatherlink.com 1.10,2013-03-13 15:32:00,
2013-03-13 11:47:00,27.4,23.0,30.16,NW,309,0.0,5.0,82,0.00,,,0.00,weatherlink.com 1.10,2013-03-13 15:47:00,
2013-03-13 12:03:00,27.3,23.0,30.17,WNW,303,2.0,4.0,83,0.00,,,0.00,weatherlink.com 1.10,2013-03-13 16:03:00,
2013-03-13 12:18:00,27.1,22.0,30.17,WNW,295,0.0,9.0,80,0.00,,,0.00,weatherlink.com 1.10,2013-03-13 16:18:00,
2013-03-13 12:33:00,28.1,22.0,30.18,North,350,3.0,7.0,77,0.00,,,0.00,weatherlink.com 1.10,2013-03-13 16:33:00,
2013-03-13 12:48:00,27.4,22.0,30.18,NW,311,1.0,7.0,81,0.00,,,0.00,weatherlink.com 1.10,2013-03-13 16:48:00,
2013-03-13 13:03:00,28.2,22.0,30.19,WNW,298,2.0,8.0,79,0.00,,,0.00,weatherlink.com 1.10,2013-03-13 17:03:00,
2013-03-13 13:18:00,28.7,23.0,30.19,NW,314,5.0,7.0,80,0.00,,,0.00,weatherlink.com 1.10,2013-03-13 17:18:00,
2013-03-13 13:33:00,27.4,23.0,30.20,WNW,298,3.0,8.0,84,0.00,,,0.00,weatherlink.com 1.10,2013-03-13 17:33:00,
2013-03-13 13:48:00,27.8,22.0,30.20,ENE,63,5.0,10.0,79,0.00,,,0.00,weatherlink.com 1.10,2013-03-13 17:48:00,
2013-03-13 14:03:00,29.0,22.0,30.20,NW,311,4.0,8.0,75,0.00,,,0.00,weatherlink.com 1.10,2013-03-13 18:03:00,
2013-03-13 14:19:00,29.2,23.0,30.21,NW,322,4.0,10.0,76,0.00,,,0.00,weatherlink.com 1.10,2013-03-13 18:19:00,
2013-03-13 14:33:00,29.8,21.0,30.21,NNW,335,6.0,9.0,69,0.00,,,0.00,weatherlink.com 1.10,2013-03-13 18:33:00,
2013-03-13 14:48:00,28.9,20.0,30.21,NW,318,3.0,8.0,70,0.00,,,0.00,weatherlink.com 1.10,2013-03-13 18:48:00,
2013-03-13 15:03:00,28.8,20.0,30.21,NNE,19,2.0,10.0,71,0.00,,,0.00,weatherlink.com 1.10,2013-03-13 19:03:00,
2013-03-13 15:18:00,28.6,21.0,30.22,NNW,335,3.0,7.0,73,0.00,,,0.00,weatherlink.com 1.10,2013-03-13 19:18:00,
2013-03-13 15:33:00,28.6,21.0,30.23,NNW,331,5.0,10.0,72,0.00,,,0.00,weatherlink.com 1.10,2013-03-13 19:33:00,
2013-03-13 15:48:00,30.1,20.0,30.23,WSW,245,1.0,11.0,66,0.00,,,0.00,weatherlink.com 1.10,2013-03-13 19:48:00,
2013-03-13 16:03:00,29.3,19.0,30.24,NW,321,2.0,13.0,65,0.00,,,0.00,weatherlink.com 1.10,2013-03-13 20:03:00,
2013-03-13 16:18:00,30.1,18.0,30.24,North,355,5.0,9.0,61,0.00,,,0.00,weatherlink.com 1.10,2013-03-13 20:18:00,
2013-03-13 16:33:00,31.7,18.0,30.25,NW,304,8.0,12.0,57,0.00,,,0.00,weatherlink.com 1.10,2013-03-13 20:33:00,
2013-03-13 16:48:00,31.6,17.0,30.26,NNE,28,4.0,11.0,56,0.00,,,0.00,weatherlink.com 1.10,2013-03-13 20:48:00,
2013-03-13 17:03:00,30.6,17.0,30.26,West,280,4.0,13.0,58,0.00,,,0.00,weatherlink.com 1.10,2013-03-13 21:03:00,
2013-03-13 17:18:00,31.2,17.0,30.27,WNW,300,7.0,11.0,56,0.00,,,0.00,weatherlink.com 1.10,2013-03-13 21:18:00,
2013-03-13 17:33:00,29.1,17.0,30.27,NNE,22,2.0,10.0,60,0.00,,,0.00,weatherlink.com 1.10,2013-03-13 21:33:00,
2013-03-13 17:48:00,29.6,18.0,30.27,WNW,297,1.0,9.0,61,0.00,,,0.00,weatherlink.com 1.10,2013-03-13 21:48:00,
2013-03-13 18:03:00,29.7,17.0,30.28,NW,312,1.0,10.0,60,0.00,,,0.00,weatherlink.com 1.10,2013-03-13 22:03:00,
2013-03-13 18:18:00,29.9,17.0,30.28,WNW,285,2.0,8.0,59,0.00,,,0.00,weatherlink.com 1.10,2013-03-13 22:18:00,
2013-03-13 18:33:00,28.5,17.0,30.29,NW,326,5.0,12.0,62,0.00,,,0.00,weatherlink.com 1.10,2013-03-13 22:33:00,
2013-03-13 18:48:00,28.1,17.0,30.29,NNW,330,2.0,10.0,63,0.00,,,0.00,weatherlink.com 1.10,2013-03-13 22:48:00,
2013-03-13 19:03:00,27.7,16.0,30.29,WNW,285,0.0,8.0,63,0.00,,,0.00,weatherlink.com 1.10,2013-03-13 23:03:00,
2013-03-13 19:18:00,27.4,17.0,30.30,North,349,5.0,11.0,64,0.00,,,0.00,weatherlink.com 1.10,2013-03-13 23:18:00,
2013-03-13 19:35:00,26.9,16.0,30.30,NNW,329,6.0,10.0,64,0.00,,,0.00,weatherlink.com 1.10,2013-03-13 23:35:00,
2013-03-13 19:49:00,26.5,16.0,30.30,NNW,347,3.0,8.0,64,0.00,,,0.00,weatherlink.com 1.10,2013-03-13 23:49:00,
2013-03-13 20:04:00,26.2,16.0,30.30,North,352,1.0,8.0,65,0.00,,,0.00,weatherlink.com 1.10,2013-03-14 00:04:00,
2013-03-13 20:19:00,25.8,16.0,30.31,NW,311,3.0,4.0,66,0.00,,,0.00,weatherlink.com 1.10,2013-03-14 00:19:00,
2013-03-13 20:34:00,25.5,16.0,30.31,WNW,299,1.0,6.0,66,0.00,,,0.00,weatherlink.com 1.10,2013-03-14 00:34:00,
2013-03-13 20:49:00,25.3,16.0,30.32,NW,316,2.0,4.0,67,0.00,,,0.00,weatherlink.com 1.10,2013-03-14 00:49:00,
2013-03-13 21:04:00,25.0,16.0,30.32,NNW,331,1.0,4.0,68,0.00,,,0.00,weatherlink.com 1.10,2013-03-14 01:04:00,
2013-03-13 21:19:00,24.5,15.0,30.32,NNW,336,1.0,2.0,68,0.00,,,0.00,weatherlink.com 1.10,2013-03-14 01:19:00,
2013-03-13 21:34:00,23.9,15.0,30.32,NNW,328,1.0,1.0,70,0.00,,,0.00,weatherlink.com 1.10,2013-03-14 01:34:00,
2013-03-13 21:49:00,23.5,15.0,30.32,NNW,329,0.0,1.0,70,0.00,,,0.00,weatherlink.com 1.10,2013-03-14 01:49:00,
2013-03-13 22:04:00,22.6,15.0,30.32,NNW,333,0.0,1.0,72,0.00,,,0.00,weatherlink.com 1.10,2013-03-14 02:04:00,
2013-03-13 22:19:00,21.5,15.0,30.33,NNW,333,0.0,1.0,75,0.00,,,0.00,weatherlink.com 1.10,2013-03-14 02:19:00,
2013-03-13 22:34:00,20.8,15.0,30.33,NNW,333,0.0,1.0,77,0.00,,,0.00,weatherlink.com 1.10,2013-03-14 02:34:00,
2013-03-13 22:49:00,19.5,14.0,30.33,NNW,333,0.0,0.0,79,0.00,,,0.00,weatherlink.com 1.10,2013-03-14 02:49:00,
2013-03-13 23:04:00,18.2,13.0,30.33,NNW,333,0.0,0.0,81,0.00,,,0.00,weatherlink.com 1.10,2013-03-14 03:04:00,
2013-03-13 23:19:00,17.5,13.0,30.33,NNW,333,0.0,0.0,83,0.00,,,0.00,weatherlink.com 1.10,2013-03-14 03:19:00,
2013-03-13 23:34:00,16.9,13.0,30.33,NNW,333,0.0,0.0,86,0.00,,,0.00,weatherlink.com 1.10,2013-03-14 03:34:00,
2013-03-13 23:49:00,16.5,13.0,30.34,NNW,333,0.0,0.0,85,0.00,,,0.00,weatherlink.com 1.10,2013-03-14 03:49:00,